Satellite-Ground Cal/Val Site Overpasses Predictions

Prediction of Satellite NPP Overpassing Cal/Val Site: Antarctic Dome C

Ground Cal/Val Site Location: Latitude: -75.10, Longitude: 123.35; Satellite-Ground Site NADIR distance within 100 km.

Table of predicted overpasses for the next 14.0 days since TLE Epoch: 7/7/2025
Interval Starting Time Ending Time Minimum Distance Time Minimum Distance (km)
1 07/08/2025 15:09:45 07/08/2025 15:09:47 07/08/2025 15:09:46 99.64
2 07/09/2025 14:50:42 07/09/2025 14:51:11 07/09/2025 14:50:57 11.65
3 07/11/2025 07:33:32 07/11/2025 07:34:01 07/11/2025 07:33:47 3.65
4 07/14/2025 14:57:01 07/14/2025 14:57:29 07/14/2025 14:57:15 24.52
5 07/15/2025 14:38:17 07/15/2025 14:38:33 07/15/2025 14:38:25 82.54
6 07/16/2025 07:39:51 07/16/2025 07:40:18 07/16/2025 07:40:04 32.80
7 07/17/2025 07:21:05 07/17/2025 07:21:24 07/17/2025 07:21:14 77.47
8 07/19/2025 15:03:20 07/19/2025 15:03:43 07/19/2025 15:03:32 61.31
